Weather in Tockoe

Russia / Orenburg Oblast     52°31′30″N   52°44′40″E
temp.,
°C
wind,
m/s
gust,
m/s
humid.,
%
clouds,
%
prec.,
mm/h
press.,
hPa
HPBL,
m
19 september, sun
sun1923:00+8nnw5848100 0.0 1021640
02:00+4nw36665 0.0 1022127
05:00+3nw37715 0.0 1023150
08:00+2nw267533 0.0 1024184
11:00+8nnw454840 0.0 10241056
14:00+11nw45385 0.0 10241462
17:00+12nw4533100 0.0 10241549
20:00+8nnw334654 0.0 102430
20 september, mon
mon2023:00+6n225528 0.0 102512
02:00+5nne115924 0.0 102510
05:00+4ene116366 0.0 102610
08:00+4ene116334 0.0 102613
11:00+10e334390 0.0 1026655
14:00+13e3332100 0.0 10251179
17:00+14e332895 0.0 10241296
20:00+10ene3537100 0.0 102469
21 september, tue
tue2123:00+8e3845100 0.0 1025145
02:00+8e5945100 0.0 1025299
05:00+7e4847100 0.0 1025271
08:00+8e4746100 0.0 1024262
11:00+9e4745100 0.0 1024278
14:00+10ese5946100 0.1 1024394
17:00+11ese51039100 0.1 1022494
20:00+11ese51043100 0.1 1022439
22 september, wed
wed2223:00+12ese51139100 0.1 1021344
02:00+12ese61235100 0.0 1020325
05:00+12sse3939100 0.0 1021287
08:00+12se4945100 0.3 1021288
11:00+11sse5973100 0.5 1022373
14:00+11se3881100 0.5 1022404
17:00+11ese3763100 0.9 1022227
20:00+11se3757100 0.2 1023183
23 september, thu
thu2323:00+11ese51058100 0.3 1023262
02:00+10ese5125899 0.0 1023257
05:00+9ese484895 0.0 1024132
08:00+9ese3745100 0.0 1024130
11:00+12ese3840100 0.0 1025201
14:00+14se3833100 0.0 1025262
17:00+16sse5828100 0.0 1025863
20:00+13ese3533100 0.0 1025106